| time (UTC) | temp F | wind direction | speed knots | gust knots | rain 1hr in | rain 24hr in | rain mn in | humidity % | barometer mb |
| 20260503223439 | 90 | 315 | 1.7 | 5.2 | 0.00 | 0.00 | 0.00 | 28 | 1014.1 |
| 20260503222934 | 91 | 283 | 3.5 | 8.7 | 0.00 | 0.00 | 0.00 | 29 | 1014.0 |
| 20260503222433 | 92 | 54 | 0.9 | 7.0 | 0.00 | 0.00 | 0.00 | 30 | 1014.1 |
| 20260503221931 | 89 | 184 | 0.0 | 7.8 | 0.00 | 0.00 | 0.00 | 31 | 1013.8 |
| 20260503221429 | 91 | 322 | 6.1 | 6.1 | 0.00 | 0.00 | 0.00 | 30 | 1013.9 |
| 20260503220926 | 90 | 138 | 0.0 | 7.0 | 0.00 | 0.00 | 0.00 | 34 | 1014.0 |
| 20260503220422 | 89 | 319 | 6.1 | 6.1 | 0.00 | 0.00 | 0.00 | 34 | 1013.7 |
| 20260503215919 | 91 | 341 | 1.7 | 7.8 | 0.00 | 0.00 | 0.00 | 32 | 1013.4 |
| 20260503215416 | 90 | 0 | 2.6 | 4.3 | 0.00 | 0.00 | 0.00 | 32 | 1013.6 |
| 20260503214914 | 89 | 334 | 5.2 | 6.1 | 0.00 | 0.00 | 0.00 | 29 | 1013.7 |
| 20260503214411 | 89 | 283 | 1.7 | 6.1 | 0.00 | 0.00 | 0.00 | 31 | 1013.6 |
| 20260503213908 | 91 | 8 | 0.0 | 2.6 | 0.00 | 0.00 | 0.00 | 30 | 1013.9 |
| 20260503213406 | 88 | 225 | 1.7 | 7.0 | 0.00 | 0.00 | 0.00 | 31 | 1014.1 |
| 20260503212902 | 89 | 277 | 2.6 | 4.3 | 0.00 | 0.00 | 0.00 | 30 | 1014.2 |
| 20260503212400 | 88 | 229 | 3.5 | 7.0 | 0.00 | 0.00 | 0.00 | 33 | 1014.3 |
| 20260503211857 | 88 | 244 | 2.6 | 7.0 | 0.00 | 0.00 | 0.00 | 33 | 1014.2 |
| 20260503211354 | 88 | 281 | 2.6 | 4.3 | 0.00 | 0.00 | 0.00 | 35 | 1014.6 |
| 20260503210849 | 88 | 258 | 2.6 | 7.0 | 0.00 | 0.00 | 0.00 | 34 | 1014.7 |
| 20260503210347 | 87 | 253 | 3.5 | 9.6 | 0.00 | 0.00 | 0.00 | 35 | 1014.9 |
| 20260503205841 | 88 | 324 | 2.6 | 7.0 | 0.00 | 0.00 | 0.00 | 37 | 1014.8 |
| 20260503205338 | 87 | 180 | 2.6 | 9.6 | 0.00 | 0.00 | 0.00 | 40 | 1014.9 |
| 20260503204834 | 86 | 242 | 4.3 | 8.7 | 0.00 | 0.00 | 0.00 | 40 | 1015.1 |
| 20260503204332 | 87 | 202 | 4.3 | 7.8 | 0.00 | 0.00 | 0.00 | 39 | 1015.2 |
| 20260503203829 | 86 | 228 | 6.1 | 6.1 | 0.00 | 0.00 | 0.00 | 39 | 1015.4 |
| 20260503203327 | 86 | 249 | 3.5 | 7.0 | 0.00 | 0.00 | 0.00 | 40 | 1015.5 |
| 20260503202824 | 86 | 294 | 0.9 | 9.6 | 0.00 | 0.00 | 0.00 | 41 | 1015.4 |
| 20260503202322 | 86 | 277 | 2.6 | 5.2 | 0.00 | 0.00 | 0.00 | 42 | 1015.5 |
| 20260503201820 | 87 | 300 | 1.7 | 5.2 | 0.00 | 0.00 | 0.00 | 42 | 1015.7 |
| 20260503201316 | 84 | 245 | 0.0 | 7.0 | 0.00 | 0.00 | 0.00 | 42 | 1016.0 |
| 20260503200814 | 85 | 242 | 4.3 | 7.0 | 0.00 | 0.00 | 0.00 | 46 | 1016.1 |
| 20260503200309 | 84 | 292 | 5.2 | 7.8 | 0.00 | 0.00 | 0.00 | 44 | 1015.9 |
| 20260503195807 | 83 | 245 | 4.3 | 7.8 | 0.00 | 0.00 | 0.00 | 47 | 1016.3 |
| 20260503195304 | 86 | 313 | 2.6 | 4.3 | 0.00 | 0.00 | 0.00 | 47 | 1016.4 |
| 20260503194801 | 84 | 344 | 1.7 | 8.7 | 0.00 | 0.00 | 0.00 | 47 | 1016.6 |
| 20260503194256 | 84 | 307 | 2.6 | 8.7 | 0.00 | 0.00 | 0.00 | 52 | 1016.3 |
| 20260503193753 | 83 | 317 | 3.5 | 5.2 | 0.00 | 0.00 | 0.00 | 52 | 1016.4 |
| 20260503193249 | 81 | 344 | 4.3 | 7.8 | 0.00 | 0.00 | 0.00 | 52 | 1016.2 |
| 20260503192745 | 82 | 270 | 3.5 | 5.2 | 0.00 | 0.00 | 0.00 | 53 | 1016.2 |
| 20260503192240 | 81 | 287 | 1.7 | 5.2 | 0.00 | 0.00 | 0.00 | 54 | 1016.2 |
| 20260503191737 | 80 | 292 | 4.3 | 6.1 | 0.00 | 0.00 | 0.00 | 54 | 1016.3 |
| 20260503191234 | 81 | 283 | 1.7 | 5.2 | 0.00 | 0.00 | 0.00 | 53 | 1016.3 |
| 20260503190731 | 80 | 270 | 3.5 | 7.0 | 0.00 | 0.00 | 0.00 | 55 | 1016.3 |
| 20260503190228 | 80 | 261 | 1.7 | 5.2 | 0.00 | 0.00 | 0.00 | 56 | 1016.3 |
| 20260503185725 | 79 | 263 | 3.5 | 7.0 | 0.00 | 0.00 | 0.00 | 55 | 1016.3 |
| 20260503185220 | 80 | 254 | 2.6 | 5.2 | 0.00 | 0.00 | 0.00 | 55 | 1016.5 |
| 20260503184715 | 80 | 273 | 3.5 | 4.3 | 0.00 | 0.00 | 0.00 | 54 | 1016.7 |
| 20260503184212 | 79 | 279 | 3.5 | 4.3 | 0.00 | 0.00 | 0.00 | 57 | 1016.4 |
| 20260503183708 | 79 | 337 | 4.3 | 5.2 | 0.00 | 0.00 | 0.00 | 54 | 1016.4 |
| 20260503183206 | 78 | 264 | 1.7 | 5.2 | 0.00 | 0.00 | 0.00 | 55 | 1016.8 |
| 20260503182704 | 79 | 24 | 0.0 | 6.1 | 0.00 | 0.00 | 0.00 | 54 | 1016.7 |
| 20260503182202 | 80 | 303 | 1.7 | 4.3 | 0.00 | 0.00 | 0.00 | 53 | 1016.7 |
| 20260503181658 | 76 | 310 | 2.6 | 5.2 | 0.00 | 0.00 | 0.00 | 57 | 1016.7 |
| 20260503181155 | 77 | 45 | 2.6 | 5.2 | 0.00 | 0.00 | 0.00 | 57 | 1016.7 |
| 20260503180652 | 77 | 261 | 2.6 | 4.3 | 0.00 | 0.00 | 0.00 | 58 | 1016.9 |
| 20260503180150 | 77 | 255 | 3.5 | 3.5 | 0.00 | 0.00 | 0.00 | 58 | 1016.8 |
| 20260503175647 | 76 | 278 | 0.0 | 3.5 | 0.00 | 0.00 | 0.00 | 57 | 1016.8 |
| 20260503175144 | 76 | 74 | 1.7 | 3.5 | 0.00 | 0.00 | 0.00 | 57 | 1016.8 |
| 20260503174640 | 73 | 307 | 1.7 | 5.2 | 0.00 | 0.00 | 0.00 | 59 | 1016.8 |
| 20260503174138 | 73 | 339 | 1.7 | 6.1 | 0.00 | 0.00 | 0.00 | 59 | 1016.8 |
| 20260503173632 | 73 | 8 | 0.0 | 4.3 | 0.00 | 0.00 | 0.00 | 60 | 1017.0 |
| 20260503173129 | 74 | 10 | 2.6 | 2.6 | 0.00 | 0.00 | 0.00 | 59 | 1017.0 |
| 20260503172626 | 73 | 192 | 0.0 | 3.5 | 0.00 | 0.00 | 0.00 | 60 | 1017.0 |
| 20260503172124 | 73 | 270 | 0.9 | 2.6 | 0.00 | 0.00 | 0.00 | 61 | 1017.1 |
| 20260503171620 | 72 | 256 | 3.5 | 3.5 | 0.00 | 0.00 | 0.00 | 62 | 1017.1 |
| 20260503171117 | 71 | 270 | 2.6 | 3.5 | 0.00 | 0.00 | 0.00 | 63 | 1016.9 |
| 20260503170615 | 71 | 315 | 2.6 | 5.2 | 0.00 | 0.00 | 0.00 | 63 | 1017.1 |
| 20260503170111 | 70 | 180 | 0.9 | 4.3 | 0.00 | 0.00 | 0.00 | 64 | 1017.1 |
| 20260503151006 | 62 | 107 | 3.5 | 3.5 | 0.00 | 0.00 | 0.00 | 82 | 1017.4 |
| 20260503150503 | 61 | 98 | 0.9 | 1.7 | 0.00 | 0.00 | 0.00 | 84 | 1017.3 |
| 20260503131356 | 50 | 66 | 1.7 | 2.6 | 0.00 | 0.00 | 0.00 | 99 | 1017.0 |
| 20260503130853 | 50 | 66 | 1.7 | 3.5 | 0.00 | 0.00 | 0.00 | 99 | 1016.5 |
| 20260503130350 | 50 | 105 | 2.6 | 2.6 | 0.00 | 0.00 | 0.00 | 99 | 1016.8 |
| 20260503110744 | 52 | 26 | 2.6 | 3.5 | 0.00 | 0.00 | 0.00 | 99 | 1017.2 |
| 20260503110241 | 52 | 60 | 1.7 | 2.6 | 0.00 | 0.00 | 0.00 | 99 | 1017.3 |
| 20260503100207 | 54 | 29 | 1.7 | 1.7 | 0.00 | 0.00 | 0.00 | 98 | 1017.0 |
| 20260503090132 | 55 | 74 | 0.0 | 0.0 | 0.00 | 0.00 | 0.00 | 96 | 1017.5 |
| 20260503081602 | 57 | 105 | 1.7 | 2.6 | 0.00 | 0.00 | 0.00 | 93 | 1017.6 |
| 20260503081059 | 57 | 63 | 0.9 | 2.6 | 0.00 | 0.00 | 0.00 | 93 | 1017.8 |
| 20260503080555 | 57 | 29 | 0.0 | 2.6 | 0.00 | 0.00 | 0.00 | 92 | 1017.4 |
| 20260503072529 | 59 | 82 | 0.9 | 1.7 | 0.00 | 0.00 | 0.00 | 89 | 1017.4 |
| 20260503072026 | 60 | 125 | 2.6 | 5.2 | 0.00 | 0.00 | 0.00 | 87 | 1017.4 |
| 20260503071523 | 60 | 90 | 2.6 | 2.6 | 0.00 | 0.00 | 0.00 | 87 | 1017.3 |
| 20260503071020 | 60 | 66 | 2.6 | 2.6 | 0.00 | 0.00 | 0.00 | 87 | 1017.3 |
| 20260503070516 | 60 | 29 | 0.0 | 1.7 | 0.00 | 0.00 | 0.00 | 87 | 1017.3 |
| 20260503054940 | 62 | 29 | 0.0 | 2.6 | 0.00 | 0.01 | 0.01 | 83 | 1017.8 |
| 20260503054436 | 62 | 23 | 0.0 | 0.9 | 0.00 | 0.01 | 0.01 | 84 | 1017.8 |
| 20260503053934 | 62 | 16 | 0.0 | 0.0 | 0.00 | 0.01 | 0.01 | 83 | 1018.0 |
| 20260503053431 | 63 | 32 | 1.7 | 2.6 | 0.00 | 0.01 | 0.01 | 82 | 1018.1 |
| 20260503052927 | 62 | 15 | 2.6 | 3.5 | 0.00 | 0.01 | 0.01 | 83 | 1018.2 |
| 20260503052425 | 62 | 32 | 0.0 | 0.0 | 0.00 | 0.01 | 0.01 | 82 | 1018.2 |
| 20260503051921 | 63 | 32 | 0.0 | 0.0 | 0.00 | 0.01 | 0.01 | 82 | 1018.2 |
| 20260503051417 | 63 | 32 | 0.0 | 0.0 | 0.00 | 0.01 | 0.01 | 81 | 1018.1 |
| 20260503050915 | 63 | 32 | 0.0 | 0.0 | 0.00 | 0.01 | 0.01 | 81 | 1018.3 |
| 20260503050410 | 63 | 32 | 0.0 | 0.0 | 0.00 | 0.01 | 0.01 | 80 | 1018.1 |
| 20260503045908 | 64 | 32 | 0.0 | 1.7 | 0.00 | 0.01 | 0.01 | 79 | 1018.0 |
| 20260503045406 | 64 | 28 | 1.7 | 2.6 | 0.00 | 0.01 | 0.01 | 78 | 1018.3 |
| 20260503044902 | 64 | 67 | 2.6 | 2.6 | 0.00 | 0.01 | 0.01 | 78 | 1018.1 |
| 20260503044359 | 64 | 60 | 2.6 | 3.5 | 0.00 | 0.01 | 0.01 | 77 | 1018.2 |
| 20260503043856 | 64 | 57 | 1.7 | 2.6 | 0.00 | 0.01 | 0.01 | 77 | 1018.1 |
| 20260503043353 | 64 | 59 | 1.7 | 2.6 | 0.00 | 0.01 | 0.01 | 77 | 1018.1 |
| 20260503042849 | 64 | 90 | 1.7 | 1.7 | 0.00 | 0.01 | 0.01 | 77 | 1018.1 |
| 20260503042346 | 64 | 125 | 1.7 | 2.6 | 0.00 | 0.01 | 0.01 | 76 | 1018.0 |
| 20260503041842 | 65 | 111 | 0.9 | 2.6 | 0.00 | 0.01 | 0.01 | 76 | 1018.3 |
| 20260503041339 | 65 | 101 | 1.7 | 2.6 | 0.00 | 0.01 | 0.01 | 76 | 1018.1 |
| 20260503040837 | 65 | 128 | 1.7 | 2.6 | 0.00 | 0.01 | 0.01 | 75 | 1018.0 |
| 20260503040335 | 66 | 82 | 0.0 | 2.6 | 0.00 | 0.01 | 0.01 | 74 | 1018.2 |
| 20260503035831 | 66 | 100 | 1.7 | 2.6 | 0.00 | 0.01 | 0.01 | 75 | 1018.0 |
| 20260503035328 | 66 | 128 | 2.6 | 4.3 | 0.00 | 0.01 | 0.01 | 74 | 1018.0 |
| 20260503034826 | 66 | 90 | 2.6 | 10.4 | 0.00 | 0.01 | 0.01 | 74 | 1017.8 |
| 20260503034323 | 66 | 82 | 2.6 | 3.5 | 0.00 | 0.01 | 0.01 | 74 | 1018.0 |
| 20260503033820 | 67 | 94 | 2.6 | 7.0 | 0.00 | 0.01 | 0.01 | 73 | 1017.6 |
| 20260503033317 | 68 | 150 | 5.2 | 5.2 | 0.00 | 0.01 | 0.01 | 71 | 1017.7 |
| 20260503032815 | 68 | 164 | 6.1 | 7.0 | 0.00 | 0.01 | 0.01 | 70 | 1017.6 |
| 20260503032314 | 69 | 112 | 5.2 | 5.2 | 0.00 | 0.01 | 0.01 | 69 | 1017.1 |
| 20260503031811 | 69 | 180 | 1.7 | 7.8 | 0.00 | 0.01 | 0.01 | 68 | 1016.7 |
| 20260503031309 | 70 | 108 | 3.5 | 13.0 | 0.00 | 0.01 | 0.01 | 66 | 1016.3 |
| 20260503030805 | 71 | 159 | 14.8 | 14.8 | 0.00 | 0.01 | 0.01 | 66 | 1016.4 |
| 20260503030301 | 71 | 100 | 0.0 | 7.0 | 0.00 | 0.01 | 0.01 | 65 | 1016.6 |
| 20260503025758 | 71 | 131 | 5.2 | 5.2 | 0.00 | 0.01 | 0.01 | 65 | 1016.2 |
| 20260503025256 | 72 | 202 | 4.3 | 9.6 | 0.00 | 0.01 | 0.01 | 64 | 1015.9 |
| 20260503024752 | 73 | 265 | 0.0 | 7.8 | 0.00 | 0.01 | 0.01 | 64 | 1016.0 |
| 20260503024249 | 74 | 203 | 4.3 | 13.0 | 0.00 | 0.01 | 0.01 | 60 | 1015.9 |
| 20260503023746 | 75 | 169 | 0.0 | 2.6 | 0.00 | 0.01 | 0.01 | 58 | 1015.7 |
| 20260503023243 | 75 | 198 | 0.0 | 3.5 | 0.00 | 0.01 | 0.01 | 58 | 1015.7 |
| 20260503022739 | 76 | 221 | 0.0 | 1.7 | 0.00 | 0.01 | 0.01 | 58 | 1015.3 |
| 20260503022234 | 76 | 249 | 0.0 | 2.6 | 0.00 | 0.01 | 0.01 | 57 | 1015.2 |
| 20260503021731 | 77 | 279 | 0.0 | 2.6 | 0.00 | 0.01 | 0.01 | 55 | 1015.5 |
| 20260503021227 | 78 | 285 | 0.0 | 2.6 | 0.00 | 0.01 | 0.01 | 54 | 1015.7 |
| 20260503020725 | 78 | 305 | 0.0 | 3.5 | 0.00 | 0.01 | 0.01 | 54 | 1015.8 |
| 20260503020222 | 79 | 352 | 1.7 | 2.6 | 0.00 | 0.01 | 0.01 | 53 | 1016.3 |
| 20260503015719 | 78 | 265 | 1.7 | 3.5 | 0.00 | 0.01 | 0.01 | 55 | 1016.2 |
| 20260503015216 | 78 | 270 | 1.7 | 3.5 | 0.00 | 0.01 | 0.01 | 54 | 1016.4 |
| 20260503014711 | 79 | 291 | 0.9 | 3.5 | 0.00 | 0.01 | 0.01 | 53 | 1016.2 |
| 20260503014210 | 78 | 270 | 1.7 | 3.5 | 0.00 | 0.01 | 0.01 | 54 | 1016.3 |
| 20260503013706 | 78 | 0 | 0.9 | 6.1 | 0.00 | 0.01 | 0.01 | 55 | 1016.6 |
| 20260503013204 | 79 | 29 | 0.0 | 1.7 | 0.00 | 0.01 | 0.01 | 53 | 1016.5 |
| 20260503012702 | 79 | 29 | 0.9 | 2.6 | 0.00 | 0.01 | 0.01 | 53 | 1016.7 |
| 20260503012158 | 80 | 24 | 1.7 | 4.3 | 0.00 | 0.01 | 0.01 | 52 | 1016.6 |
| 20260503011654 | 79 | 237 | 1.7 | 1.7 | 0.00 | 0.01 | 0.01 | 53 | 1016.6 |
| 20260503011152 | 78 | 228 | 3.5 | 3.5 | 0.00 | 0.01 | 0.01 | 55 | 1016.2 |
| 20260503010648 | 78 | 225 | 2.6 | 4.3 | 0.00 | 0.01 | 0.01 | 54 | 1016.7 |
| 20260503010145 | 78 | 325 | 0.9 | 4.3 | 0.00 | 0.01 | 0.01 | 55 | 1016.6 |
| 20260503005642 | 78 | 307 | 1.7 | 3.5 | 0.00 | 0.01 | 0.01 | 56 | 1016.7 |
| 20260503005139 | 76 | 246 | 0.0 | 4.3 | 0.00 | 0.01 | 0.01 | 56 | 1016.6 |
| 20260503004635 | 77 | 289 | 0.9 | 3.5 | 0.00 | 0.01 | 0.01 | 57 | 1016.4 |
| 20260503004134 | 78 | 234 | 2.6 | 3.5 | 0.00 | 0.01 | 0.01 | 54 | 1016.6 |
| 20260503003631 | 78 | 13 | 2.6 | 3.5 | 0.00 | 0.01 | 0.01 | 55 | 1016.7 |
| 20260503003128 | 77 | 330 | 2.6 | 3.5 | 0.00 | 0.01 | 0.01 | 56 | 1016.7 |
| 20260503002625 | 76 | 240 | 2.6 | 4.3 | 0.00 | 0.01 | 0.01 | 58 | 1016.6 |
| 20260503002121 | 77 | 275 | 1.7 | 3.5 | 0.00 | 0.01 | 0.01 | 56 | 1016.5 |
| 20260503001617 | 76 | 236 | 2.6 | 5.2 | 0.00 | 0.01 | 0.01 | 57 | 1016.6 |
| 20260503001115 | 76 | 74 | 0.9 | 2.6 | 0.00 | 0.01 | 0.01 | 58 | 1016.7 |
| 20260503000612 | 77 | 300 | 0.9 | 7.0 | 0.00 | 0.01 | 0.01 | 57 | 1016.8 |
| 20260503000109 | 76 | 352 | 0.0 | 4.3 | 0.00 | 0.01 | 0.01 | 58 | 1016.9 |
| 20260502235606 | 77 | 0 | 1.7 | 3.5 | 0.00 | 0.01 | 0.01 | 56 | 1017.1 |
| 20260502235104 | 76 | 244 | 2.6 | 3.5 | 0.00 | 0.01 | 0.01 | 57 | 1017.0 |
| 20260502234559 | 75 | 236 | 2.6 | 3.5 | 0.00 | 0.01 | 0.01 | 59 | 1017.1 |
| 20260502234057 | 74 | 297 | 0.0 | 4.3 | 0.00 | 0.01 | 0.01 | 60 | 1017.4 |
| 20260502233557 | 75 | 304 | 2.6 | 5.2 | 0.00 | 0.01 | 0.01 | 58 | 1017.3 |
| 20260502233055 | 75 | 310 | 2.6 | 5.2 | 0.00 | 0.01 | 0.01 | 59 | 1017.5 |
| 20260502232551 | 74 | 251 | 7.0 | 7.0 | 0.00 | 0.01 | 0.01 | 59 | 1017.5 |
| 20260502232048 | 74 | 256 | 6.1 | 8.7 | 0.00 | 0.01 | 0.01 | 58 | 1017.5 |
| 20260502231545 | 74 | 235 | 2.6 | 6.1 | 0.00 | 0.01 | 0.01 | 59 | 1017.7 |
| 20260502231043 | 73 | 111 | 4.3 | 6.1 | 0.00 | 0.01 | 0.01 | 60 | 1017.6 |
| 20260502230541 | 73 | 346 | 1.7 | 6.1 | 0.00 | 0.01 | 0.01 | 61 | 1018.0 |
| 20260502230039 | 72 | 353 | 4.3 | 6.1 | 0.00 | 0.01 | 0.01 | 62 | 1018.0 |
| 20260502225534 | 73 | 0 | 0.0 | 2.6 | 0.00 | 0.01 | 0.01 | 61 | 1018.0 |
| 20260502225032 | 71 | 327 | 3.5 | 8.7 | 0.00 | 0.01 | 0.01 | 64 | 1018.2 |
| 20260502224528 | 73 | 266 | 2.6 | 3.5 | 0.00 | 0.01 | 0.01 | 61 | 1018.4 |
| 20260502224025 | 71 | 301 | 6.1 | 7.8 | 0.00 | 0.01 | 0.01 | 64 | 1018.4 |